Stations météo

réclame
Mon MeteoGroup
Calvi, France (7754): Température de l'air & dewpoint: 17.09.2017 21:00:00 - 23.09.2017 21:00:00 (CEST)Calvi, France (7754): Température de l'air 5cm: 17.09.2017 21:00:00 - 23.09.2017 21:00:00 (CEST)Calvi, France (7754): Vitesse du vent & gusts: 17.09.2017 21:00:00 - 23.09.2017 21:00:00 (CEST)Calvi, France (7754): Direction du vent: 17.09.2017 21:00:00 - 23.09.2017 21:00:00 (CEST)Calvi, France (7754): reduced air pressure: 17.09.2017 21:00:00 - 23.09.2017 21:00:00 (CEST)Calvi, France (7754): visibility: 17.09.2017 21:00:00 - 23.09.2017 21:00:00 (CEST)Calvi, France (7754): Ensoleillement: 17.09.2017 21:00:00 - 23.09.2017 21:00:00 (CEST)Calvi, France (7754): Quantités de précipitations: 17.09.2017 21:00:00 - 23.09.2017 21:00:00 (CEST)
Date & Time tt [°C] td [°C] tt 5cm [°C] ff [km/h] ff [knt] fx [km/h] fx [knt] dd ppp [hPa] vv [km] sd [min] rr [mm]
23.09.2017 21:00:00 16,8 14,4 16,3 10 5 12 6 SSE 1019,9 46 0 0,0
23.09.2017 20:00:00 18,4 14,9 17,3 5 3 8 5 SW 1019,8 49 0 0,0
23.09.2017 19:00:00 20,3 15,7 20,5 7 4 13 7 N 1019,8 60 1 0,0
23.09.2017 18:00:00 20,8 15,8 21,4 9 5 19 10 N 1019,8 60 19 0,0
23.09.2017 17:00:00 21,7 16,0 22,6 15 8 25 14 N 1019,9 60 10 0,0
23.09.2017 16:00:00 22,1 14,5 23,3 14 8 33 18 NNW 1020,1 56 37 0,0
23.09.2017 15:00:00 23,2 14,2 24,2 19 10 30 16 N 1020,1 42 31 0,0
23.09.2017 14:00:00 23,1 13,8 23,9 10 6 24 13 NW 1020,3 60 1 0,0
23.09.2017 13:00:00 22,6 13,9 24,1 11 6 30 16 NW 1020,6 60 45 0,0
23.09.2017 12:00:00 23,2 14,2 26,3 14 8 23 12 N 1021,0 20 60 0,0
23.09.2017 11:00:00 22,9 11,9 22,7 9 5 14 8 NW 1021,1 60 60 0,0
23.09.2017 10:00:00 22,3 11,7 20,8 2 1 5 3 NE 1021,0 60 60 0,0
23.09.2017 09:00:00 18,5 12,3 14,9 3 2 13 7 SSW 1021,1 59 60 0,0
23.09.2017 08:00:00 14,5 11,5 12,8 8 5 12 6 SSW 1021,2 60 6 0,0
23.09.2017 07:00:00 13,6 10,4 12,6 9 5 16 8 S 1020,8 60 0 0,0
23.09.2017 06:00:00 13,0 10,7 12,0 8 4 12 6 SSE 1020,8 60 0 0,0
23.09.2017 05:00:00 13,4 10,9 12,6 11 6 16 8 SSW 1021,0 60 0 0,0
23.09.2017 04:00:00 13,2 10,7 12,5 6 4 10 6 S 1021,2 60 0 0,0
23.09.2017 03:00:00 13,7 11,0 12,9 5 3 11 6 SSW 1021,8 57 0 0,0
23.09.2017 02:00:00 14,2 11,4 13,2 6 3 10 6 S 1022,0 60 0 0,0
23.09.2017 01:00:00 14,2 11,0 13,5 3 1 11 6 S 1021,6 60 0 0,0
23.09.2017 00:00:00 14,8 11,4 14,3 7 4 14 7 SSW 1021,8 60 0 0,0
22.09.2017 23:00:00 15,6 12,0 14,5 11 6 14 7 SSW 1021,7 60 0 0,0
22.09.2017 22:00:00 15,4 11,6 15,0 5 3 14 8 S 1021,6 60 0 0,0
22.09.2017 21:00:00 16,9 12,2 16,4 10 6 17 9 SSW 1021,6 60 0 0,0
22.09.2017 20:00:00 17,9 12,6 17,5 11 6 16 9 SSE 1021,2 60 0 0,0
22.09.2017 19:00:00 20,4 13,8 20,4 5 3 15 8 WNW 1021,0 60 26 0,0
22.09.2017 18:00:00 21,9 13,3 24,1 9 5 23 12 NW 1020,8 60 60 0,0
22.09.2017 17:00:00 22,2 12,7 25,9 14 8 23 13 NNW 1020,4 60 60 0,0
22.09.2017 16:00:00 22,8 13,0 26,2 12 6 25 13 NNW 1020,6 60 60 0,0
22.09.2017 15:00:00 22,5 13,0 25,4 13 7 26 14 NNW 1020,8 60 60 0,0
22.09.2017 14:00:00 22,1 12,6 25,1 14 8 27 15 NNW 1021,0 60 60 0,0
22.09.2017 13:00:00 22,1 12,1 25,3 14 7 25 14 NNW 1021,2 60 60 0,0
22.09.2017 12:00:00 21,7 12,3 24,6 12 7 21 11 NNW 1021,2 47 60 0,0
22.09.2017 11:00:00 21,6 12,2 21,0 9 5 16 8 N 1021,2 60 60 0,0
22.09.2017 10:00:00 20,3 9,8 19,9 4 2 6 3 N 1020,9 60 60 0,0
22.09.2017 09:00:00 17,4 9,8 13,9 0 0 14 8 N 1020,6 60 60 0,0
22.09.2017 08:00:00 13,3 9,4 11,7 7 4 16 9 S 1020,3 60 9 0,0
22.09.2017 07:00:00 13,4 9,6 11,2 11 6 17 9 S 1020,1 60 0 0,0
22.09.2017 06:00:00 11,7 8,9 11,2 6 4 14 8 S 1020,1 60 0 0,0
22.09.2017 05:00:00 13,0 10,2 11,9 10 6 14 8 SSW 1020,4 60 0 0,0
22.09.2017 04:00:00 12,4 10,1 11,9 8 4 11 6 S 1020,5 49 0 0,0
22.09.2017 03:00:00 13,6 10,9 12,5 9 5 13 7 S 1020,7 58 0 0,0
22.09.2017 02:00:00 13,3 11,2 12,8 5 3 13 7 SSW 1020,8 55 0 0,0
22.09.2017 01:00:00 13,6 11,5 12,9 2 1 10 5 S 1020,5 58 0 0,0
22.09.2017 00:00:00 14,1 12,0 13,5 4 2 10 6 S 1020,4 52 0 0,0
21.09.2017 23:00:00 15,3 12,4 14,2 5 3 10 6 S 1020,1 49 0 0,0
21.09.2017 22:00:00 16,8 13,5 15,5 5 3 8 4 S 1020,2 52 0 0,0
21.09.2017 21:00:00 17,8 13,3 16,9 4 2 11 6 S 1020,0 60 0 0,0
21.09.2017 20:00:00 18,4 13,7 17,7 7 4 10 6 ESE 1019,6 60 0 0,0
21.09.2017 19:00:00 20,2 13,6 20,2 5 3 13 7 NNW 1019,3 60 22 0,0
21.09.2017 18:00:00 22,5 12,7 25,5 4 2 25 13 WSW 1019,1 60 60 0,0
21.09.2017 17:00:00 23,3 11,7 25,9 11 6 29 16 WSW 1018,9 54 53 0,0
21.09.2017 16:00:00 22,9 11,6 23,2 8 4 24 13 WNW 1019,0 60 11 0,0
21.09.2017 15:00:00 22,1 11,5 23,0 6 4 19 10 W 1019,1 60 5 0,0
21.09.2017 14:00:00 22,0 12,0 23,3 8 5 24 13 NNW 1019,3 60 50 0,0
21.09.2017 13:00:00 22,2 11,6 25,6 12 6 27 15 NNW 1019,4 60 60 0,0
21.09.2017 12:00:00 21,4 11,4 24,1 13 7 21 11 N 1019,7 60 60 0,0
21.09.2017 11:00:00 20,7 11,9 20,1 8 4 16 8 N 1019,7 60 60 0,0
21.09.2017 10:00:00 21,2 11,5 18,9 0 0 5 3 N 1019,7 20 60 0,0
21.09.2017 09:00:00 16,3 8,3 12,6 0 0 14 8 N 1019,4 60 60 0,0
21.09.2017 08:00:00 11,6 6,3 9,4 4 2 13 7 SSW 1019,3 60 11 0,0
21.09.2017 07:00:00 10,1 5,7 9,2 5 3 14 7 S 1019,0 60 0 0,0
21.09.2017 06:00:00 11,1 5,4 9,6 8 4 15 8 S 1018,8 60 0 0,0
21.09.2017 05:00:00 10,5 6,1 9,7 10 5 16 9 SSW 1018,9 60 0 0,0
21.09.2017 04:00:00 10,8 6,0 10,3 12 7 16 8 SSE 1019,0 60 0 0,0
21.09.2017 03:00:00 11,6 6,5 10,6 11 6 16 9 S 1019,0 60 0 0,0
21.09.2017 02:00:00 12,2 8,3 10,5 10 5 15 8 S 1018,9 60 0 0,0
21.09.2017 01:00:00 11,6 7,1 10,4 5 3 10 5 S 1018,6 60 0 0,0
21.09.2017 00:00:00 12,2 7,3 11,0 2 1 17 9 S 1018,4 60 0 0,0
20.09.2017 23:00:00 13,8 8,4 13,2 11 6 15 8 S 1018,4 60 0 0,0
20.09.2017 22:00:00 13,7 9,1 13,3 10 5 13 7 S 1018,4 60 0 0,0
20.09.2017 21:00:00 16,2 10,9 15,2 3 1 19 10 SSE 1017,8 59 0 0,0
20.09.2017 20:00:00 17,7 12,6 16,6 10 5 13 7 SSE 1017,4 60 0 0,0
20.09.2017 19:00:00 19,6 12,1 18,5 5 3 12 6 N 1016,9 19 29 0,0
20.09.2017 18:00:00 22,3 7,3 25,2 7 4 16 9 NNW 1016,6 51 60 0,0
20.09.2017 17:00:00 22,8 8,9 26,7 10 6 20 11 NNW 1016,5 59 60 0,0
20.09.2017 16:00:00 23,2 6,0 27,7 10 5 23 12 NW 1016,7 54 60 0,0
20.09.2017 15:00:00 23,1 5,5 27,1 10 6 26 14 WNW 1016,7 60 60 0,0
20.09.2017 14:00:00 23,7 3,0 25,7 13 7 21 11 NNW 1016,5 60 60 0,0
20.09.2017 13:00:00 23,4 5,8 26,7 12 6 22 12 N 1016,6 60 60 0,0
20.09.2017 12:00:00 23,0 4,5 25,6 10 5 20 11 NNW 1016,8 60 60 0,0
20.09.2017 11:00:00 22,2 5,6 20,9 3 1 8 4 NW 1016,6 60 60 0,0
20.09.2017 10:00:00 21,3 7,5 18,7 3 1 6 3 N 1016,4 58 60 0,0
20.09.2017 09:00:00 17,3 7,1 12,6 5 3 12 6 SSE 1016,0 60 60 0,0
20.09.2017 08:00:00 11,9 6,2 10,1 5 3 13 7 SSE 1015,8 60 11 0,0
20.09.2017 07:00:00 12,4 6,2 9,9 9 5 16 9 S 1015,4 60 0 0,0
20.09.2017 06:00:00 12,5 5,4 10,7 5 3 18 10 S 1014,9 60 0 0,0
20.09.2017 05:00:00 12,8 5,7 12,2 14 8 24 13 SSE 1014,8 60 0 0,0
20.09.2017 04:00:00 14,1 6,9 12,2 10 5 19 10 S 1014,5 60 0 0,0
20.09.2017 03:00:00 13,0 7,4 12,0 10 5 20 11 S 1014,8 60 0 0,0
20.09.2017 02:00:00 13,1 8,6 12,3 13 7 18 10 S 1014,8 60 0 0,0
20.09.2017 01:00:00 12,8 7,9 11,8 13 7 17 9 SSW 1014,6 60 0 0,0
20.09.2017 00:00:00 13,1 7,1 12,4 9 5 17 9 SSW 1014,5 60 0 0,0
19.09.2017 23:00:00 12,9 6,9 12,2 12 7 16 9 SSW 1014,4 60 0 0,0
19.09.2017 22:00:00 14,0 8,2 12,5 5 3 13 7 SSW 1013,5 60 0 0,0
19.09.2017 21:00:00 16,9 8,3 15,1 9 5 19 10 S 1012,4 60 0 0,0
19.09.2017 20:00:00 17,0 7,6 16,4 14 7 26 14 S 1011,9 60 0 0,0
19.09.2017 19:00:00 17,5 7,5 17,3 13 7 27 15 SSW 1011,9 60 0 0,0
19.09.2017 18:00:00 17,8 7,2 17,7 22 12 40 22 SW 1011,8 60 0 0,0
19.09.2017 17:00:00 17,7 8,8 18,0 9 5 29 16 SSW 1011,9 60 0 0,0
19.09.2017 16:00:00 18,0 9,9 18,8 19 11 47 25 WSW 1011,8 60 7 0,0
19.09.2017 15:00:00 20,4 11,1 21,8 15 8 35 19 SW 1011,7 60 52 0,0
19.09.2017 14:00:00 19,9 11,6 21,3 16 9 35 19 WSW 1012,3 60 52 0,0
19.09.2017 13:00:00 19,8 12,3 20,8 14 8 35 19 WSW 1012,4 55 41 0,0
19.09.2017 12:00:00 19,7 12,2 21,0 21 11 45 24 SW 1012,5 59 44 0,0
19.09.2017 11:00:00 21,0 11,1 19,5 22 12 39 21 SSW 1012,5 60 60 0,0
19.09.2017 10:00:00 19,1 10,1 18,6 23 12 38 21 S 1012,4 60 60 0,0
19.09.2017 09:00:00 18,5 9,0 16,4 17 9 30 16 SSW 1012,6 58 60 0,0
19.09.2017 08:00:00 16,5 10,3 14,6 17 9 34 19 S 1012,2 59 14 0,0
19.09.2017 07:00:00 15,8 11,4 14,0 20 11 29 16 S 1012,1 60 0 0,0
19.09.2017 06:00:00 15,6 11,8 14,8 12 6 20 11 SSW 1012,2 60 0 0,0
19.09.2017 05:00:00 16,2 12,2 15,5 12 7 30 16 S 1012,5 60 0 0,0
19.09.2017 04:00:00 16,1 12,3 15,4 14 8 31 17 SSW 1012,3 60 0 0,0
19.09.2017 03:00:00 15,7 11,9 15,3 15 8 31 17 SSW 1012,8 60 0 0,0
19.09.2017 02:00:00 15,7 12,4 14,6 13 7 30 16 S 1013,4 60 0 0,0
19.09.2017 01:00:00 15,9 12,6 14,7 15 8 32 17 SSW 1013,6 19 0 0,0
19.09.2017 00:00:00 16,0 13,3 15,0 19 11 29 15 S 1014,0 60 0 0,0
18.09.2017 23:00:00 15,7 13,9 15,3 6 3 16 9 SSW 1014,7 50 0 0,0
18.09.2017 22:00:00 16,0 14,7 15,7 3 2 14 7 W 1014,7 60 0 0,0
18.09.2017 21:00:00 15,9 14,9 15,8 6 3 10 5 N 1014,5 47 0 -
18.09.2017 20:00:00 16,3 15,5 16,0 2 1 11 6 W 1014,3 18 0 -
18.09.2017 19:00:00 16,4 15,4 15,9 3 1 7 4 E 1014,5 2,6 0 7,7
18.09.2017 18:00:00 16,6 15,6 16,1 0 0 15 8 N 1014,4 0,8 0 6,5
18.09.2017 17:00:00 16,8 15,5 15,9 7 4 26 14 E 1015,0 1,8 0 12,8
18.09.2017 16:00:00 18,5 14,8 16,7 9 5 29 16 WSW 1014,8 12 0 0,8
18.09.2017 15:00:00 21,1 13,5 21,2 20 11 35 19 WSW 1014,7 60 0 0,0
18.09.2017 14:00:00 23,1 10,2 24,1 11 6 28 15 WSW 1014,7 60 0 0,0
18.09.2017 13:00:00 23,2 9,9 24,2 17 9 31 17 SW 1015,2 60 10 0,0
18.09.2017 12:00:00 23,8 9,0 24,9 20 11 36 19 SW 1015,8 60 4 0,0
18.09.2017 11:00:00 23,3 8,9 24,5 19 10 36 20 SW 1015,9 60 47 -
18.09.2017 10:00:00 23,4 7,5 22,5 22 12 35 19 S 1015,9 60 60 0,0
18.09.2017 09:00:00 21,7 7,1 18,4 19 10 32 17 S 1016,0 60 28 0,0
18.09.2017 08:00:00 18,8 6,3 16,3 13 7 25 14 SSW 1016,0 60 0 0,0
18.09.2017 07:00:00 18,4 6,6 16,2 14 8 21 11 S 1016,4 60 0 0,0
18.09.2017 06:00:00 17,4 8,0 16,4 10 5 21 12 SSW 1016,4 60 0 0,0
18.09.2017 05:00:00 17,5 8,9 16,1 11 6 23 12 SSW 1016,8 60 0 0,0
18.09.2017 04:00:00 17,5 9,9 16,8 12 6 23 12 SSW 1017,0 60 0 0,0
18.09.2017 03:00:00 18,1 10,0 17,6 16 9 29 16 S 1017,5 60 0 0,0
18.09.2017 02:00:00 18,9 9,4 18,3 16 9 32 17 S 1017,8 60 0 0,0
18.09.2017 01:00:00 18,8 9,3 18,1 16 9 28 15 S 1017,8 60 0 0,0
18.09.2017 00:00:00 18,7 9,5 17,9 16 9 42 23 S 1018,0 60 0 0,0
17.09.2017 23:00:00 18,6 9,6 17,9 19 10 36 19 SSW 1018,1 60 0 0,0
17.09.2017 22:00:00 18,5 9,8 17,9 21 11 39 21 S 1017,7 60 0 0,0
17.09.2017 21:00:00 18,2 9,8 17,9 17 9 39 21 SSW 1017,9 60 0 0,0

tt = Température de l'air
td = dewpoint
tt 5cm = Température de l'air 5cm
ff = Vitesse du vent
fx = gusts
dd = Direction du vent
ppp = reduced air pressure
vv = visibility
sd = Ensoleillement
rr = Quantités de précipitations

stations d'obs. à proximité